Regional Weather Roundup
Issued by NWS Sioux Falls, SD

Home | Current Version | Previous Version | Text Only | Print | Product List | Glossary On
Versions: 1 2 3 4 5 6 7 8 9 10 11 12 13 14 15 16 17 18 19 20 21 22 23 24 25 26 27 28 29 30 31 32 33 34 35 36 37 38 39 40 41 42 43 44 45 46 47 48 49 50
000
ASUS43 KFSD 252202
RWRFSD

WEATHER ROUNDUP FOR SE SOUTH DAKOTA/SW MINNESOTA/NW IOWA
NATIONAL WEATHER SERVICE SIOUX FALLS SD
500 PM CDT FRI MAY 25 2018

NOTE: "FAIR" INDICATES FEW OR NO CLOUDS BELOW 12,000 FEET WITH NO
SIGNIFICANT WEATHER AND OR OBSTRUCTIONS TO VISIBILITY.


SDZ038>040-050-052>070-252300-
SOUTHEAST SOUTH DAKOTA

CITY           SKY/WX    TMP DP  RH WIND       PRES   REMARKS
BROOKINGS      MOSUNNY   88  57  34 W16       29.74F
CHAMBERLAIN    MOSUNNY   90  60  36 SW8       29.78F
HURON          MOSUNNY   91  54  28 NW17      29.72F
MADISON        FAIR      86  55  35 W17       29.75F
MITCHELL       MOSUNNY   91  59  33 W8        29.74F
SIOUX FALLS    CLOUDY    87  59  38 W8        29.74F
WINNER         FAIR      89  60  37 NW9       29.81F
YANKTON        SUNNY     91  55  29 W7        29.75F
$$

MNZ071-072-080-081-089-090-097-098-252300-
SOUTHWEST MINNESOTA

CITY           SKY/WX    TMP DP  RH WIND       PRES   REMARKS
FAIRMONT       SUNNY     90  56  31 SW12G18   29.72F
JACKSON        MOSUNNY   86  55  35 CALM      29.74F
LUVERNE        PTSUNNY   88  52  29 W17G26    29.74F THUNDER
MARSHALL       TSTM      72  59  63 N18G29    29.77R
MONTEVIDEO     CLOUDY    88  45  22 NW9       29.70F
PIPESTONE      MOSUNNY   88  54  31 NW12G21   29.75S
REDWOOD FALLS  CLOUDY    86  57  37 SW9       29.69F
TRACY          TSTM      84  53  33 W16G25    29.75R
WINDOM         SUNNY     91  55  29 SW7       29.71F
WORTHINGTON      N/A     91  56  30 S13       29.73F
$$

IAZ001>003-012>014-020>022-031-032-NEZ013-014-SDZ071-252300-
NORTHWEST IOWA

CITY           SKY/WX    TMP DP  RH WIND       PRES   REMARKS
CHEROKEE       MOSUNNY   86  62  44 CALM      29.73F
DENISON        CLOUDY    91  61  35 CALM      29.75F
ESTHERVILLE    SUNNY     87  59  38 NW8       29.72F
ORANGE CITY    MOSUNNY   91  52  25 W14       29.74F
SHELDON        SUNNY     93  48  21 W15G21    29.72F
SIOUX CITY     SUNNY     93  61  34 E3        29.73F
SPENCER        SUNNY     92  56  29 W14G21    29.72F
STORM LAKE     SUNNY     90  55  31 NW6G16    29.75S
$$

ABBREVIATIONS USED IN REMARKS
   TC - TEMPERATURE IN CELSIUS
  WCI - WIND CHILL INDEX
   HX - HEAT INDEX
  VSB - VISIBILITY





USA.gov is the U.S. government's official web portal to all federal, state and local government web resources and services.